Weather in Karlykhanovo

Russia / Republic of Bashkortostan     55°57′08″N   58°41′15″E
temp.,
°C
wind,
m/s
gust,
m/s
humid.,
%
clouds,
%
prec.,
mm/h
press.,
hPa
HPBL,
m
28 january, thu
thu2823:00−7sw4129158 0.0 1028326
02:00−6sw51588100 0.0 1027413
05:00−6ssw41388100 0.0 1026403
08:00−5ssw51685100 0.0 1025553
11:00−4sw61681100 0.0 1024597
14:00−2sw61379100 0.0 1023628
17:00−3sw51381100 0.0 1023528
20:00−5sw41283100 0.0 1024371
29 january, fri
fri2923:00−7ssw2589100 0.0 1023106
02:00−7s2288100 0.0 102438
05:00−8sse128499 0.0 102321
08:00−7se1179100 0.0 102221
11:00−4se1277100 0.0 102221
14:000ese1281100 0.0 102078
17:00−1ese2272100 0.0 101921
20:00−2ese2372100 0.0 101960
30 january, sat
sat3023:00−4ese2368100 0.0 101761
02:00−4ese2367100 0.0 101670
05:00−5s2271100 0.0 101521
08:00−4e2276100 0.0 101426
11:00−4s2587100 0.0 1013269
14:00−3s2496100 0.3 1013266
17:00−3s2397100 0.9 1013132
20:00−5ssw389797 0.3 1013311
31 january, sun
sun3123:00−7s259587 0.3 1014143
02:00−9s2496100 0.0 101473
05:00−9s3109480 0.0 1015253
08:00−8sw399598 0.0 1016270
11:00−5sw499499 0.1 1016534
14:00−3sw4688100 0.1 1018629
17:00−5ssw239398 0.1 101986
20:00−7s229388 0.0 102021
1 february, mon
mon123:00−7se229494 0.0 101923
02:00−8ese359247 0.0 101884
05:00−7ese388349 0.0 1015145
08:00−5se41184100 0.0 1012213
11:00−4ssw31391100 0.1 1011812
14:00−2sw61287100 1.0 1010948
17:00−3ssw6128798 1.1 1011999
20:00−5wsw61293100 0.3 1013913